[Iaude] MPEC G196: 2024 GL5 [a=1.17,e=0.37,i=10.5,H=25.8]
    mpec at cfa.harvard.edu 
    mpec at cfa.harvard.edu
       
    Sat Apr 13 23:37:39 EDT 2024
    
    
  
M.P.E.C. 2024-G196                               Issued 2024 April 14, 03:36 UT
     The Minor Planet Electronic Circulars contain information on unusual
         minor planets, routine data on comets and natural satellites,
         and occasional editorial announcements.  They are published
    on behalf of Division F of the International Astronomical Union by the
          Minor Planet Center, Smithsonian Astrophysical Observatory,
                          Cambridge, MA 02138, U.S.A.
			  
             Prepared using the Tamkin Foundation Computer Network
                              MPC at CFA.HARVARD.EDU
            URL https://www.minorplanetcenter.net/    ISSN 1523-6714
                                    2024 GL5                                    
Observations:
     K24G05L*1C2024 04 12.30687512 14 23.039+05 57 35.24         20.73GVEG196G96
     K24G05L 1C2024 04 12.31203612 14 21.084+05 58 52.28         20.85GVEG196G96
     K24G05L 1C2024 04 12.31719912 14 19.086+06 00 09.47         19.97GVEG196G96
     K24G05L 1C2024 04 12.32235612 14 17.041+06 01 28.52         20.57GVEG196G96
     K24G05L  C2024 04 12.34747112 14 07.161+06 07 43.32         20.3 GVEG196H01
     K24G05L  C2024 04 12.35488912 14 04.356+06 09 35.40         20.4 GVEG196H01
     K24G05L  C2024 04 12.36362512 14 01.055+06 11 47.62         20.8 GVEG196H01
     K24G05L  C2024 04 12.36855112 13 59.206+06 13 02.06         20.7 GVEG196H01
     K24G05L KC2024 04 12.39802712 13 48.418+06 20 33.54         20.91GVEG196I52
     K24G05L KC2024 04 12.39916512 13 48.000+06 20 50.86         21.04GVEG196I52
     K24G05L KC2024 04 12.40146412 13 47.143+06 21 25.74         20.69GVEG196I52
     K24G05L KB2024 04 12.85202012 11 18.15 +08 19 56.8          20.4 GXEG196I93
     K24G05L KB2024 04 12.85810612 11 15.66 +08 21 37.6          20.5 GXEG196I93
     K24G05L 1C2024 04 12.86397 12 11 11.69 +08 23 02.4          21.4 VXEG196033
     K24G05L KB2024 04 12.86417712 11 13.24 +08 23 17.7          20.9 GXEG196I93
     K24G05L 1C2024 04 12.86490 12 11 11.32 +08 23 17.5          20.9 VXEG196033
     K24G05L 1C2024 04 12.86582 12 11 10.97 +08 23 32.5          21.2 VXEG196033
     K24G05L 1C2024 04 12.86675 12 11 10.58 +08 23 47.7          21.1 VXEG196033
     K24G05L KC2024 04 13.12985712 09 32.36 +09 37 47.5          20.9 GVEG196H21
     K24G05L KC2024 04 13.13545012 09 29.96 +09 39 23.6          20.8 GVEG196H21
     K24G05L KC2024 04 13.13824712 09 28.71 +09 40 11.4          20.7 GVEG196H21
     K24G05L KC2024 04 13.18101912 09 13.424+09 52 42.28         20.50GVEG196I52
     K24G05L KC2024 04 13.18191412 09 12.989+09 52 58.01         20.33GVEG196I52
     K24G05L KC2024 04 13.18371012 09 12.229+09 53 29.33         20.62GVEG196I52
     K24G05L KC2024 04 14.11751712 02 34.68 +14 42 14.6          20.9 GVEG196H21
     K24G05L KC2024 04 14.12310912 02 31.80 +14 44 06.5          21.3 GVEG196H21
     K24G05L KC2024 04 14.12870112 02 28.89 +14 45 58.2          21.1 GVEG196H21
     K24G05L KC2024 04 14.13382612 02 26.26 +14 47 41.0          20.8 GVEG196H21
     K24G05L KC2024 04 14.13555512 02 28.910+14 48 27.29         20.98GVEG196I52
     K24G05L KC2024 04 14.13643812 02 28.475+14 48 45.25         20.57GVEG196I52
     K24G05L KC2024 04 14.13730012 02 28.043+14 49 02.32         20.55GVEG196I52
     K24G05L KC2024 04 14.13816612 02 27.582+14 49 20.03         20.15GVEG196I52
Observer details:
033 Karl Schwarzschild Observatory, Tautenburg.  Observers S. Melnikov, C.
    Hogner, F. Ludwig, M. Hartmann, B. Stecklum.  Measurer B. Stecklum.
    1.34-m f/3 Schmidt + CCD.
G96 Mt. Lemmon Survey.  Observer H. Groeller.  Measurers T. Beuden, V. F.
    Carvajal, D. Fay, J. B. Fazekas, D. C. Fuls, A. R. Gibbs, A. D. Grauer, H.
    Groeller, J. K. Hogan, R. A. Kowalski, S. M. Larson, G. J. Leonard, D.
    Rankin, R. L. Seaman, F. C. Shelly, K. W. Wierzchos.  1.5-m reflector +
    10K CCD.
H01 Magdalena Ridge Observatory, Socorro.  Observers W. H. Ryan, E. V. Ryan.
    Measurer W. H. Ryan.  2.4-m f/8.9 Ritchey-Chretien + CCD.
H21 Astronomical Research Observatory, Westfield.  Observer R. Holmes.
    Measurers T. Linder, R. Holmes, L. Horn.  0.76-m f/3.0 astrograph + CCD.
I52 Steward Observatory, Mt. Lemmon Station.  Observers V. F. Carvajal, D.
    Rankin.  Measurers T. Beuden, V. F. Carvajal, D. Fay, J. B. Fazekas, D. C.
    Fuls, A. R. Gibbs, A. D. Grauer, H. Groeller, J. K. Hogan, R. A. Kowalski,
    S. M. Larson, G. J. Leonard, D. Rankin, R. L. Seaman, F. C. Shelly, K. W.
    Wierzchos.  1.0-m prime focus + CCD.
I93 St Pardon de Conques.  Observer F. Losse.  0.40-m f/3.7 reflector + CCD.
Orbital elements:
2024 GL5                                                 Earth MOID = 0.0191 AU
Epoch 2024 Mar. 31.0 TT = JDT 2460400.5                 MPC                     
M 295.48896              (2000.0)            P               Q                  
n   0.77948909     Peri.   99.35493     +0.47150460     +0.87984511             
a   1.1693092      Node   199.12842     -0.86356911     +0.44696411             
e   0.3670187      Incl.   10.48506     -0.17869473     +0.16154150             
P   1.26           H   25.86          G   0.15           U   7                  
Residuals in seconds of arc
240412 G96  0.1-  0.2+    240412 I93  0.1+  0.4-    240413 I52  0.3-  0.4-
240412 G96  0.3+  0.4-    240412 I93  0.3-  0.2+    240413 I52  0.1+  0.2-
240412 G96  0.0   0.9-    240412 033  0.0   0.2-    240414 H21  0.0   0.0
240412 G96  1.0-  0.5+    240412 I93  0.4+  0.3+    240414 H21  0.0   0.1+
240412 H01  0.1-  0.2+    240412 033  0.1+  0.4-    240414 H21  0.3-  0.1-
240412 H01  0.1-  0.1+    240412 033  0.5+  0.5-    240414 H21  0.1+  0.1+
240412 H01  0.2-  0.2+    240412 033  0.3+  0.7-    240414 I52  0.1-  0.1-
240412 H01  0.1-  0.0     240413 H21  0.0   0.3+    240414 I52  0.2+  0.1+
240412 I52  0.1+  0.1+    240413 H21  0.3+  0.3+    240414 I52  0.3+  0.2-
240412 I52  0.2+  0.1+    240413 H21  0.2-  0.0     240414 I52  0.0   0.1+
240412 I52  0.2+  0.0     240413 I52  0.3+  0.7-
Ephemeris:
2024 GL5                 a,e,i = 1.17, 0.37, 10                  q = 0.7402
Date    TT    R. A. (2000) Decl.     Delta      r    Elong.  Phase     V
2024 03 15    12 57 18.6 -23 39 16   0.2653  1.2277   148.1    25.4    24.6
...
2024 03 30    12 49 13.7 -18 37 25   0.1473  1.1414   164.7    13.3    22.8
...
2024 04 07    12 34 57.7 -09 11 33   0.09266 1.0929   172.4     6.9    21.4
...
2024 04 13    12 10 19.2 +09 02 09   0.05872 1.0557   153.9    24.7    21.0
2024 04 14    12 03 25.5 +14 04 31   0.05426 1.0495   148.3    30.2    20.9
2024 04 15    11 55 03.0 +19 55 14   0.05037 1.0433   141.7    36.6    20.9
...
2024 04 21    09 34 53.4 +64 13 51   0.04520 1.0056    89.6    87.8    22.2
...
2024 04 29    02 56 07.2 +62 37 58   0.08042 0.9556    48.5   127.9    25.8
...
2024 05 14    01 48 58.6 +45 18 17   0.1789  0.8664    33.2   140.3    28.7
A. U. Tomatic                (C) Copyright 2024 MPC           M.P.E.C. 2024-G196
    
    
More information about the Iaude
mailing list